Location: Normandy Village
(37.8755°N, 122.2655°W)
Time: 05:41:00
(UTC+00:00)

CZ-2C R/B - Pass Details

Date: 22 September 2019
Orbit: 669 x 784 km, 98.1° (Epoch: 21 October)

Event Time Altitude Azimuth Distance (km) Brightness Sun altitude
Rises 12:04:51 0° 20° (NNE) 3,168 6.3 -22.5°
Reaches altitude 10° 12:07:13 10° 27° (NNE) 2,259 5.5 -22.0°
Maximum altitude 12:11:58 43° 99° (E) 1,054 3.6 -21.2°
Drops below altitude 10° 12:16:48 10° 170° (S) 2,304 4.9 -20.2°
Sets 12:19:13 0° 177° (S) 3,238 5.6 -19.8°
